Overview Statistics Trail Chart Weather Telemetry Raw packets
 

This is the latest recevied weather packets stored in our database for station/object K8RRT. If no packets are shown the sender has not sent any weather packets the latest 10 day(s).

<< 38 39 40 41 42 43 44 >>
Time Temp. Humidity Pressure Rain* Wind** Luminosity Snow
1788354183 25.56° C 90% 1015.8 hPa 0 mm - 68 W/m² -
1788353878 25.56° C 91% 1015.7 hPa 0 mm - 66 W/m² -
1788353574 25° C 92% 1015.5 hPa 0 mm - 64 W/m² -
1788353270 25° C 93% 1015.6 hPa 0 mm - 63 W/m² -
1788352966 25° C 95% 1015.8 hPa 0 mm - 101 W/m² -
1788352660 25° C 99% 1015.8 hPa 0 mm - 127 W/m² -
1788352357 23.89° C 99% 1015.5 hPa 0 mm - 114 W/m² -
1788352055 23.33° C 99% 1015.4 hPa 0 mm - 112 W/m² -
1788351752 23.33° C 99% 1015.6 hPa 0 mm - 100 W/m² -
1788351451 23.33° C 99% 1015.6 hPa 0 mm - 88 W/m² -
1788351147 22.78° C 99% 1015.4 hPa 0 mm - 54 W/m² -
1788350842 22.22° C 99% 1015.5 hPa 0 mm - 53 W/m² -
1788350538 22.22° C 99% 1015.6 hPa 0 mm - 46 W/m² -
1788350238 22.22° C 99% 1015.4 hPa 0 mm - 44 W/m² -
1788349934 21.67° C 99% 1015.5 hPa 0 mm - 39 W/m² -
1788349630 21.67° C 99% 1015.5 hPa 0 mm - 35 W/m² -
1788349326 21.67° C 99% 1015.2 hPa 0 mm - 32 W/m² -
1788349037 21.11° C 99% 1015.2 hPa 0 mm - 26 W/m² -
1788348715 21.11° C 99% 1015.1 hPa 0 mm - 23 W/m² -
1788348415 21.11° C 99% 1015.2 hPa 0 mm - 18 W/m² -
1788348113 21.11° C 99% 1015 hPa 0 mm - 14 W/m² -
1788347808 21.11° C 99% 1015.1 hPa 0 mm - 11 W/m² -
1788347503 21.11° C 99% 1015 hPa 0 mm - 7 W/m² -
1788347199 21.11° C 99% 1014.8 hPa 0 mm - 5 W/m² -
1788346895 21.11° C 99% 1014.9 hPa 0 mm - 2 W/m² -

* Rain latest hour (hover to see other rain measurements)
** Current wind speed in m/s (hover to see current wind gust speed)